This demonstration page uses our WeatherBlox Daily Observations layout. Learn more.

Left ArrowRight Arrow

Hourly Observations for April 17, 2019

Temp ( °F °C ) Dew Point ( °F °C ) Humidity (%) Winds ( mph kmh ) Pressure ( in mb ) Visibility ( mi km ) Precip ( " mm )
12:53 am 00:53 Clear 64 17.8 56 13.3 75 75 ESE 13 20 29.67 1005 10 16 0.00 0.00
1:53 am 01:53 Clear 62 16.7 56 13.3 80 80 SE 14 22 29.64 1004 10 16 0.00 0.00
2:53 am 02:53 Clear 61 16.1 56 13.3 84 84 SE 13 20 29.62 1003 10 16 0.00 0.00
3:53 am 03:53 Clear 61 16.1 56 13.3 84 84 S 5 7 29.61 1003 10 16 0.00 0.00
4:53 am 04:53 Clear 59 15 55 12.8 87 87 SSE 14 22 29.60 1002 10 16 0.00 0.00
5:53 am 05:53 Clear 56 13.3 53 11.7 90 90 SSW 6 9 29.62 1003 10 16 0.00 0.00
6:53 am 06:53 Clear 52 11.1 50 10 93 93 NNW 3 6 29.65 1004 7 11 0.00 0.00
7:53 am 07:53 Sunny 55 12.8 53 11.7 93 93 W 9 15 29.69 1005 10 16 0.00 0.00
8:53 am 08:53 Sunny 64 17.8 53 11.7 68 68 WNW 8 13 29.71 1006 10 16 0.00 0.00
9:53 am 09:53 Sunny 69 20.6 45 7.2 42 42 W 10 17 29.70 1006 10 16 0.00 0.00
10:53 am 10:53 Sunny 74 23.3 37 2.8 26 26 W 22 35 29.70 1006 10 16 0.00 0.00
11:53 am 11:53 Sunny 75 23.9 34 1.1 22 22 W 25 41 29.70 1006 10 16 0.00 0.00
12:53 pm 12:53 Sunny 77 25 35 1.7 22 22 W 24 39 29.70 1006 10 16 0.00 0.00
1:53 pm 13:53 Mostly Cloudy 77 25 34 1.1 21 21 W 20 31 29.67 1005 10 16 0.00 0.00
2:53 pm 14:53 Mostly Cloudy 76 24.4 35 1.7 23 23 W 22 35 29.67 1005 10 16 0.00 0.00
3:53 pm 15:53 Sunny 77 25 31 -0.6 18 18 W 28 44 29.66 1004 10 16 0.00 0.00
4:53 pm 16:53 Mostly Sunny 76 24.4 28 -2.2 17 17 W 33 54 29.65 1004 10 16 0.00 0.00
5:53 pm 17:53 Sunny 75 23.9 26 -3.3 16 16 W 28 44 29.66 1004 10 16 0.00 0.00
6:53 pm 18:53 Sunny 74 23.3 25 -3.9 16 16 W 30 48 29.67 1005 10 16 0.00 0.00
7:53 pm 19:53 Sunny 71 21.7 26 -3.3 19 19 W 28 44 29.67 1005 10 16 0.00 0.00
8:53 pm 20:53 Clear 68 20 29 -1.7 23 23 W 20 31 29.67 1005 10 16 0.00 0.00
9:53 pm 21:53 Clear 65 18.3 35 1.7 33 33 WNW 21 33 29.70 1006 10 16 0.00 0.00
10:53 pm 22:53 Clear 62 16.7 38 3.3 41 41 W 9 15 29.72 1006 10 16 0.00 0.00
11:53 pm 23:53 Clear 61 16.1 40 4.4 46 46 WNW 15 24 29.73 1007 10 16 0.00 0.00

Powered by AerisWeather